Location: Unspecified
(38.0989°N, 0.6729°W)
Time: 03:10:58
(UTC+02:00)

Hubble Space Telescope - Visible Passes

Search period start: 25 May 2017 00:00
Search period end: 04 June 2017 00:00
Orbit: 538 x 541 km, 28.5° (Epoch: 24 May)

Date Brightness Start Highest point End Pass type
(mag) Time Alt. Az. Time Alt. Az. Time Alt. Az.
29 May 3.0 23:21:07 10° SW 23:21:51 13° SW 23:21:51 13° SW visible
30 May 2.6 23:10:55 10° SW 23:12:43 18° SSW 23:12:43 18° SSW visible
31 May 2.3 23:00:44 10° SW 23:03:25 21° S 23:03:25 21° S visible
01 Jun 2.2 22:50:36 10° SW 22:53:45 21° S 22:54:00 21° S visible
02 Jun 2.2 22:40:30 10° SW 22:43:36 20° S 22:44:29 19° SSE visible
03 Jun 2.4 22:30:27 10° SW 22:33:27 19° S 22:34:54 16° SSE visible
